User: anonymous
Location: Unspecified
(0.0000°N, 0.0000°E)
Time: 13:31:22
(UTC+02:00)
Language:

Palapa 6 Rocket - Orbit

View from above orbital plane
View from above orbital plane
View from above satellite
View from above satellite

Ground track
Ground track

The orbit data is extracted from the following two-line orbital elements,

1 20571U 90034B   14259.90798321  .00001320  00000-0  15258-3 0  5245
2 20571 022.7490 053.0890 0517473 295.3704 205.7595 14.09691746250011
Epoch (UTC): 16 September 2014 21:47:29
Eccentricity: 0.0517473
inclination: 22.7490°
perigee height: 486 km
apogee height: 1235 km
right ascension of ascending node: 53.0890°
argument of perigee: 295.3704°
revolutions per day: 14.09691746
mean anomaly at epoch: 205.7595°
orbit number at epoch: 25001

The dashed part of the orbit path shows where the satellite is in the earth's shadow,  

DLR